Dare County Gunnery Range, NC

3:42 PM EDT on April 28, 2017 (GMT -0400)
Dare County Gunnery Range

Weather History for K2DP - February, 2014

Change the Weather History Date:

Saturday, February 15, 2014

  Actual Average (KMQI) Record (KMQI)
Temperature  
Mean Temperature 40 °F -  
Max Temperature 48 °F 50 °F 70 °F (1967)
Min Temperature 31 °F 37 °F 19 °F (2015)
Degree Days  
Heating Degree Days 24    
Moisture  
Dew Point 40 °F    
Average Humidity 88    
Maximum Humidity 100    
Minimum Humidity 63    
Precipitation  
Precipitation 0.25 in - - ()
Sea Level Pressure  
Sea Level Pressure 29.62 in    
Wind  
Wind Speed 9 mph (WSW)    
Max Wind Speed 32 mph    
Max Gust Speed 48 mph    
Visibility 11 miles    
Events Rain    
Averages and records for this station are not official NWS values.
T = Trace of Precipitation, MM = Missing Value Source: NWS Daily Summary

Daily Weather History Graph

Daily Weather History Graph

Search for Another Location

Airport or City:

Trip Planner

Search our weather history database for the weather conditions in past years. The results will help you decide how hot, cold, wet, or windy it might be!

Date:

Astronomy

Feb. 15, 2014 Rise Set
Actual Time 6:50 AM EST 5:45 PM EST
Civil Twilight 6:24 AM EST 6:11 PM EST
Nautical Twilight 5:54 AM EST 6:41 PM EST
Astronomical Twilight 5:24 AM EST 7:11 PM EST
Moon 6:39 PM EST (2/15) 6:50 AM EST (2/15)
Length of Visible Light 11h 47m
Length of Day
10h 55m
Full, 100% of the Moon is Illuminated
Feb 15
Full
Feb 22
Last Quarter
Mar 1
New
Mar 8
First Quarter
Mar 16
Full

Hourly Weather History & Observations

Time (EST) Temp. Windchill Dew Point Humidity Pressure Visibility Wind Dir Wind Speed Gust Speed Precip Events Conditions
12:56 AM 38.5 °F 34.1 °F 37.4 °F 96% 29.79 in 12.0 mi South 5.8 mph - N/A   Mostly Cloudy
1:56 AM 40.8 °F 38.8 °F 38.8 °F 93% 29.76 in 12.0 mi South 3.5 mph - N/A   Mostly Cloudy
2:56 AM 40.6 °F 37.5 °F 39.4 °F 95% 29.73 in 12.0 mi South 4.6 mph - N/A   Mostly Cloudy
3:56 AM 38.5 °F 34.1 °F 37.4 °F 96% 29.70 in 12.0 mi SSW 5.8 mph - N/A   Mostly Cloudy
4:56 AM 48.0 °F - 38.3 °F 69% 29.69 in 12.0 mi WSW 12.7 mph 18.4 mph N/A   Mostly Cloudy
5:56 AM 46.0 °F 43.1 °F 38.7 °F 75% 29.64 in 12.0 mi South 5.8 mph - N/A   Mostly Cloudy
6:56 AM 42.6 °F 39.9 °F 39.4 °F 88% 29.61 in 12.0 mi South 4.6 mph - N/A   Mostly Cloudy
7:30 AM 42.8 °F - 39.2 °F 87% 29.61 in 12.0 mi SE 2.3 mph - N/A Rain Light Rain
7:46 AM 42.8 °F - 41.0 °F 93% 29.60 in 12.0 mi ESE 1.2 mph - N/A   Mostly Cloudy
7:56 AM 44.1 °F - 41.0 °F 89% 29.60 in 12.0 mi SSW 2.3 mph - N/A   Mostly Cloudy
8:04 AM 44.6 °F 43.1 °F 41.0 °F 87% 29.61 in 12.0 mi South 3.5 mph - N/A Rain Light Rain
8:28 AM 46.4 °F 44.3 °F 42.8 °F 87% 29.57 in 12.0 mi East 4.6 mph - N/A   Mostly Cloudy
8:56 AM 45.9 °F 43.6 °F 42.4 °F 88% 29.57 in 12.0 mi SSE 4.6 mph - N/A   Mostly Cloudy
9:03 AM 46.4 °F - 42.8 °F 87% 29.57 in 12.0 mi SE 2.3 mph - N/A Rain Light Rain Showers
9:56 AM 45.7 °F 42.7 °F 43.9 °F 93% 29.53 in 7.0 mi SE 5.8 mph - 0.07 in Rain Light Rain Showers
10:48 AM 46.4 °F 42.9 °F 46.4 °F 100% 29.47 in 12.0 mi SSE 6.9 mph - N/A Rain Light Rain Showers
10:56 AM 47.3 °F - 45.7 °F 94% 29.49 in 4.0 mi West 13.8 mph 23.0 mph 0.08 in Rain Light Rain Showers
11:01 AM 46.4 °F 41.9 °F 46.4 °F 100% 29.48 in 5.0 mi WSW 9.2 mph 23.0 mph N/A Rain Light Rain Showers
11:07 AM 48.2 °F - 46.4 °F 93% 29.48 in 11.0 mi WSW 6.9 mph - N/A Rain Light Rain Showers
11:30 AM 48.2 °F - 46.4 °F 93% 29.47 in 12.0 mi West 8.1 mph - N/A Rain Light Rain Showers
11:48 AM 48.2 °F - 46.4 °F 93% 29.46 in 12.0 mi WSW 10.4 mph - N/A Rain Light Rain Showers
11:54 AM 48.2 °F - 46.4 °F 93% 29.47 in 12.0 mi WSW 11.5 mph 18.4 mph N/A   Mostly Cloudy
11:56 AM 48.2 °F - 45.9 °F 92% 29.46 in 12.0 mi WSW 12.7 mph 18.4 mph 0.03 in   Mostly Cloudy
12:08 PM 48.2 °F - 46.4 °F 93% 29.46 in 12.0 mi WNW 11.5 mph 19.6 mph N/A Rain Light Rain Showers
12:25 PM 46.4 °F 41.1 °F 44.6 °F 93% 29.46 in 12.0 mi West 11.5 mph 20.7 mph N/A Rain Light Rain Showers
12:27 PM 46.4 °F 40.4 °F 44.6 °F 93% 29.46 in 12.0 mi West 13.8 mph 20.7 mph N/A   Mostly Cloudy
12:35 PM 46.4 °F 41.5 °F 44.6 °F 93% 29.46 in 12.0 mi West 10.4 mph 19.6 mph N/A Rain Light Rain Showers
12:41 PM 46.4 °F 41.5 °F 44.6 °F 93% 29.46 in 12.0 mi West 10.4 mph - N/A Rain Light Rain Showers
12:56 PM 46.4 °F 41.5 °F 44.2 °F 92% 29.46 in 12.0 mi West 10.4 mph - N/A Rain Light Rain Showers
12:59 PM 46.4 °F 41.1 °F 44.6 °F 93% 29.46 in 12.0 mi West 11.5 mph 18.4 mph N/A   Overcast
1:03 PM 46.4 °F 41.1 °F 44.6 °F 93% 29.46 in 7.0 mi West 11.5 mph 18.4 mph N/A Rain Light Rain Showers
1:15 PM 46.4 °F 38.1 °F 42.8 °F 87% 29.46 in 6.0 mi West 24.2 mph 28.8 mph N/A Rain Light Rain Showers
1:56 PM 43.5 °F 34.0 °F 40.8 °F 90% 29.48 in 12.0 mi WNW 25.3 mph 38.0 mph 0.03 in Rain Light Rain Showers
2:12 PM 42.8 °F 33.3 °F 41.0 °F 93% 29.50 in 8.0 mi NW 24.2 mph 33.4 mph N/A Rain Light Rain Showers
2:56 PM 41.7 °F 32.1 °F 39.6 °F 92% 29.56 in 12.0 mi WNW 23.0 mph 32.2 mph 0.02 in Rain Light Rain
3:56 PM 40.5 °F 30.0 °F 38.3 °F 92% 29.64 in 12.0 mi WNW 25.3 mph 34.5 mph 0.01 in   Drizzle
4:33 PM 39.2 °F 28.3 °F 35.6 °F 87% 29.68 in 12.0 mi WNW 25.3 mph 48.3 mph N/A   Mostly Cloudy
4:45 PM 39.2 °F 27.0 °F 35.6 °F 87% 29.69 in 12.0 mi NW 32.2 mph 40.3 mph N/A   Mostly Cloudy
4:56 PM 39.0 °F 28.5 °F 34.7 °F 84% 29.72 in 12.0 mi WNW 23.0 mph 36.8 mph 0.01 in   Mostly Cloudy
5:19 PM 39.2 °F 29.3 °F 33.8 °F 81% 29.75 in 12.0 mi WNW 20.7 mph 28.8 mph N/A   Mostly Cloudy
5:56 PM 39.0 °F 29.3 °F 34.7 °F 84% 29.80 in 12.0 mi WNW 19.6 mph 29.9 mph N/A   Mostly Cloudy
6:56 PM 39.4 °F 31.4 °F 35.4 °F 86% 29.86 in 12.0 mi WNW 13.8 mph 23.0 mph N/A   Mostly Cloudy
7:56 PM 38.3 °F 30.9 °F 34.9 °F 87% 29.90 in 12.0 mi WNW 11.5 mph 19.6 mph N/A   Scattered Clouds
8:56 PM 37.6 °F 28.8 °F 26.1 °F 63% 29.95 in 12.0 mi WNW 15.0 mph 23.0 mph N/A   Clear
9:56 PM 35.2 °F 27.1 °F 24.8 °F 66% 29.99 in 12.0 mi WNW 11.5 mph - N/A   Clear
10:56 PM 33.6 °F 25.6 °F 23.4 °F 66% 30.00 in 12.0 mi WNW 10.4 mph - N/A   Clear
11:56 PM 31.5 °F 23.5 °F 23.5 °F 73% 30.02 in 12.0 mi WNW 9.2 mph - N/A   Clear